Latest Weather Observations for Dennes Point

IDT60901

Issued at 8:05 pm EST Monday 22 September 2014 (issued every 10 minutes, with the page automatically refreshed every 10 minutes)

About weather observations | Map of Hobart area stations | Latest observations for Hobart area | Other Formats
Station Details ID: 094255 Name: DENNES POINT Lat: -43.06 Lon: 147.36 Height: 5.67 m
Data from the previous 72 hours. | See also: Recent months at Dennes Point
Date/Time
EST
Tmp

°C
App
Tmp
°C
Dew
Point
°C
Rel
Hum
%
Delta-T

°C
Wind Press
QNH
hPa
Press
MSL
hPa
Rain
since
9 am
mm
Dir
 
Spd
km/h
Gust
km/h
Spd
kts
Gust
kts
22/08:00pm 11.3 11.0 8.7 84 1.3 SSW 0 0 0 0 1023.3 1023.3 0.0
22/07:30pm 11.3 9.9 9.0 86 1.1 SSW 6 7 3 4 1023.0 1023.0 0.0
22/07:00pm 11.8 11.0 9.7 87 1.1 E 4 7 2 4 1022.4 1022.4 0.0
22/06:30pm 11.8 10.9 9.4 85 1.2 E 4 7 2 4 1022.1 1022.1 0.0
22/06:00pm 12.2 11.0 9.4 83 1.4 ESE 6 9 3 5 1022.0 1022.0 0.0
22/05:30pm 13.4 11.8 10.2 81 1.7 E 9 13 5 7 1022.0 1022.0 0.0
22/05:00pm 14.4 13.4 10.4 77 2.1 N 6 13 3 7 1021.7 1021.7 0.0
22/04:30pm 15.1 14.0 10.5 74 2.4 E 7 13 4 7 1021.4 1021.4 0.0
22/04:00pm 16.1 15.0 9.8 66 3.3 ENE 6 15 3 8 1021.3 1021.3 0.0
22/03:30pm 17.6 16.6 10.2 62 3.9 SW 6 9 3 5 1021.5 1021.5 0.0
22/03:00pm 19.7 17.8 6.8 43 6.5 SSE 6 9 3 5 1021.5 1021.5 0.0
22/02:30pm 17.8 14.8 7.5 51 5.2 E 13 19 7 10 1021.7 1021.7 0.0
22/02:00pm 17.7 15.0 8.8 56 4.6 E 13 19 7 10 1022.1 1022.1 0.0
22/01:30pm 17.5 15.4 8.1 54 4.8 E 9 11 5 6 1022.4 1022.4 0.0
22/01:00pm 17.6 15.5 6.8 49 5.3 E 7 9 4 5 1023.0 1023.0 0.0
22/12:30pm 17.2 15.3 7.5 53 4.9 E 7 11 4 6 1023.4 1023.4 0.0
22/12:00pm 15.9 14.5 9.6 66 3.3 E 7 11 4 6 1023.9 1023.9 0.0
22/11:30am 15.9 13.9 6.1 52 4.7 E 6 7 3 4 1024.3 1024.3 0.0
22/11:00am 15.0 13.5 6.8 58 4.0 E 4 6 2 3 1024.7 1024.7 0.0
22/10:30am 14.1 12.0 6.7 61 3.6 E 7 9 4 5 1024.9 1024.9 0.0
22/10:00am 13.8 11.6 7.8 67 2.9 ENE 9 19 5 10 1025.3 1025.3 0.0
22/09:30am 12.9 11.0 6.5 65 3.1 E 6 7 3 4 1025.7 1025.7 0.0
22/09:00am 11.9 10.2 5.8 66 2.8 ENE 4 7 2 4 1026.0 1026.0 0.0
22/08:30am 11.1 9.4 6.0 71 2.4 NE 4 6 2 3 1026.2 1026.2 0.0
22/08:00am 10.6 9.0 6.2 74 2.0 ENE 4 7 2 4 1026.2 1026.2 0.0
22/07:30am 8.9 7.1 5.6 80 1.5 S 4 7 2 4 1026.4 1026.4 0.0
22/07:00am 7.0 4.2 5.2 88 0.8 SSW 9 11 5 6 1026.5 1026.5 0.0
22/06:30am 7.0 5.1 4.7 85 1.0 SW 4 9 2 5 1026.3 1026.3 0.0
22/06:00am 6.8 4.3 4.6 86 0.9 SSW 7 9 4 5 1026.2 1026.2 0.0
22/05:30am 8.5 7.1 5.3 80 1.4 SSW 2 4 1 2 1026.1 1026.1 0.0
22/05:00am 8.6 7.6 5.5 81 1.4 CALM 0 0 0 0 1026.0 1026.0 0.0
22/04:30am 7.5 5.4 3.9 78 1.5 S 4 7 2 4 1025.9 1025.9 0.0
22/04:00am 7.5 3.8 4.5 81 1.3 S 13 15 7 8 1025.9 1025.9 0.0
22/03:30am 7.0 3.4 5.0 87 0.9 SSW 13 17 7 9 1026.0 1026.0 0.0
22/03:00am 7.0 3.4 5.0 87 0.9 SSW 13 15 7 8 1026.3 1026.3 0.0
22/02:30am 7.1 4.2 4.9 86 1.0 SW 9 11 5 6 1026.4 1026.4 0.0
22/02:00am 7.6 5.0 4.4 80 1.4 SSW 7 9 4 5 1026.3 1026.3 0.0
22/01:30am 8.2 5.4 5.0 80 1.4 SSW 9 13 5 7 1026.5 1026.5 0.0
22/01:00am 8.5 6.0 4.9 78 1.6 SSW 7 9 4 5 1026.6 1026.6 0.0
22/12:30am 8.2 5.7 4.0 75 1.8 S 6 9 3 5 1026.7 1026.7 0.0
22/12:00am 9.9 8.8 5.1 72 2.2 E 0 2 0 1 1026.8 1026.8 0.0
 
Date/Time
EST
Tmp

°C
App
Tmp
°C
Dew
Point
°C
Rel
Hum
%
Delta-T

°C
Wind Press
QNH
hPa
Press
MSL
hPa
Rain
since
9 am
mm
Dir
 
Spd
km/h
Gust
km/h
Spd
kts
Gust
kts
21/11:30pm 11.2 9.7 6.7 74 2.1 S 4 6 2 3 1026.9 1026.9 0.0
21/11:00pm 11.0 10.2 6.6 74 2.1 CALM 0 0 0 0 1027.1 1027.1 0.0
21/10:30pm 10.9 9.1 5.2 68 2.6 SSW 4 6 2 3 1027.4 1027.4 0.0
21/10:00pm 10.8 8.4 5.3 69 2.5 SSW 7 9 4 5 1027.5 1027.5 0.0
21/09:30pm 11.3 9.4 4.7 64 3.0 SW 4 7 2 4 1027.5 1027.5 0.0
21/09:00pm 12.0 10.1 5.0 62 3.2 WSW 4 9 2 5 1027.4 1027.4 0.0
21/08:30pm 11.9 9.2 5.8 66 2.8 W 9 13 5 7 1027.3 1027.3 0.0
21/08:00pm 12.4 8.7 6.5 67 2.8 W 15 19 8 10 1027.0 1027.0 0.0
21/07:30pm 12.7 11.3 5.6 62 3.3 W 2 7 1 4 1027.0 1027.0 0.0
21/07:00pm 12.1 9.7 4.3 59 3.5 SW 6 11 3 6 1026.6 1026.6 0.0
21/06:30pm 13.0 10.6 4.4 56 3.9 SSW 6 9 3 5 1026.4 1026.4 0.0
21/06:00pm 13.9 11.7 6.3 60 3.6 SW 7 11 4 6 1026.0 1026.0 0.0
21/05:30pm 15.8 12.9 6.5 54 4.5 SW 11 17 6 9 1025.8 1025.8 0.0
21/05:00pm 16.9 14.0 6.4 50 5.1 SW 11 15 6 8 1025.6 1025.6 0.0
21/04:30pm 16.6 12.4 7.5 55 4.6 WSW 19 26 10 14 1025.4 1025.4 0.0
21/04:00pm 17.4 12.1 6.9 50 5.2 W 24 32 13 17 1025.2 1025.2 0.0
21/03:30pm 17.8 14.4 7.8 52 5.1 W 15 20 8 11 1025.3 1025.3 0.0
21/03:00pm 18.5 14.7 6.0 44 6.1 WSW 15 24 8 13 1025.2 1025.2 0.0
21/02:30pm 18.9 14.5 5.0 40 6.7 WSW 17 24 9 13 1025.1 1025.1 0.0
21/02:00pm 19.1 15.2 6.9 45 6.1 WSW 17 22 9 12 1025.2 1025.2 0.0
21/01:30pm 18.2 13.8 7.6 50 5.4 W 20 28 11 15 1025.2 1025.2 0.0
21/01:00pm 18.3 13.8 6.2 45 5.9 WSW 19 24 10 13 1025.4 1025.4 0.0
21/12:30pm 18.3 13.3 6.5 46 5.9 W 22 30 12 16 1025.4 1025.4 0.0
21/12:00pm 18.1 14.0 6.3 46 5.8 W 17 22 9 12 1025.6 1025.6 0.0
21/11:30am 17.1 11.7 6.3 49 5.3 WNW 24 32 13 17 1025.7 1025.7 0.0
21/11:00am 16.9 11.6 6.7 51 5.0 W 24 30 13 16 1025.9 1025.9 0.0
21/10:30am 16.1 12.2 7.1 55 4.5 W 17 22 9 12 1026.0 1026.0 0.0
21/10:00am 15.9 11.0 6.9 55 4.4 W 22 28 12 15 1026.0 1026.0 0.0
21/09:30am 15.1 11.1 6.7 57 4.1 W 17 26 9 14 1026.2 1026.2 0.0
21/09:00am 14.0 9.7 7.8 66 3.0 W 20 28 11 15 1026.2 1026.2 0.0
21/08:30am 12.8 8.9 7.0 68 2.8 W 17 26 9 14 1026.1 1026.1 0.0
21/08:00am 12.9 8.5 6.7 66 3.0 W 19 28 10 15 1025.9 1025.9 0.0
21/07:30am 13.3 8.4 7.1 66 3.0 WSW 22 32 12 17 1025.5 1025.5 0.0
21/07:00am 11.8 8.6 6.9 72 2.3 W 13 20 7 11 1025.4 1025.4 0.0
21/06:30am 11.9 9.9 7.2 73 2.3 SW 7 17 4 9 1025.0 1025.0 0.0
21/06:00am 12.0 9.0 7.5 74 2.2 W 13 20 7 11 1024.8 1024.8 0.0
21/05:30am 11.6 8.8 6.9 73 2.2 SW 11 17 6 9 1024.4 1024.4 0.0
21/05:00am 12.4 7.8 6.5 67 2.8 WSW 20 28 11 15 1024.3 1024.3 0.0
21/04:30am 12.1 8.8 6.2 67 2.8 SW 13 22 7 12 1024.3 1024.3 0.0
21/04:00am 11.9 6.5 6.4 69 2.6 W 24 33 13 18 1024.0 1024.0 0.0
21/03:30am 12.1 6.9 5.5 64 3.1 W 22 35 12 19 1024.1 1024.1 0.0
21/03:00am 11.8 6.2 5.4 65 2.9 W 24 32 13 17 1024.2 1024.2 0.0
21/02:30am 11.8 5.7 4.8 62 3.2 W 26 33 14 18 1024.4 1024.4 0.0
21/02:00am 11.6 5.9 5.0 64 3.0 W 24 33 13 18 1024.8 1024.8 0.0
21/01:30am 11.4 5.0 5.1 65 2.9 W 28 35 15 19 1024.9 1024.9 0.0
21/01:00am 11.1 5.3 4.6 64 2.9 W 24 30 13 16 1025.3 1025.3 0.0
21/12:30am 10.9 6.5 4.8 66 2.8 W 17 24 9 13 1025.3 1025.3 0.0
21/12:00am 10.2 6.9 4.4 67 2.6 W 11 19 6 10 1025.2 1025.2 0.0
 
Date/Time
EST
Tmp

°C
App
Tmp
°C
Dew
Point
°C
Rel
Hum
%
Delta-T

°C
Wind Press
QNH
hPa
Press
MSL
hPa
Rain
since
9 am
mm
Dir
 
Spd
km/h
Gust
km/h
Spd
kts
Gust
kts
20/11:30pm 10.7 7.0 4.4 65 2.8 W 13 19 7 10 1025.3 1025.3 0.0
20/11:00pm 10.8 5.4 4.5 65 2.8 W 22 32 12 17 1025.5 1025.5 0.0
20/10:30pm 11.2 3.9 4.7 64 2.9 W 32 41 17 22 1025.6 1025.6 0.0
20/10:00pm 11.2 5.5 4.9 65 2.8 WSW 24 35 13 19 1025.7 1025.7 0.0
20/09:30pm 11.6 6.3 5.0 64 3.0 WSW 22 37 12 20 1025.7 1025.7 0.0
20/09:00pm 11.2 5.6 5.3 67 2.7 WSW 24 33 13 18 1025.6 1025.6 0.0
20/08:30pm 11.4 5.7 5.1 65 2.9 W 24 30 13 16 1025.6 1025.6 0.0
20/08:00pm 11.0 6.3 5.1 67 2.7 W 19 24 10 13 1025.4 1025.4 0.0
20/07:30pm 11.3 4.5 5.0 65 2.9 WSW 30 39 16 21 1025.2 1025.2 0.0
20/07:00pm 11.4 5.3 4.6 63 3.1 WSW 26 33 14 18 1024.9 1024.9 0.0
20/06:30pm 11.8 6.1 4.8 62 3.2 WSW 24 41 13 22 1024.5 1024.5 0.0
20/06:00pm 11.9 6.9 4.6 61 3.3 W 20 30 11 16 1024.0 1024.0 0.0
20/05:30pm 12.5 6.0 4.7 59 3.6 W 28 37 15 20 1023.6 1023.6 0.0
20/05:00pm 13.0 5.7 5.4 60 3.5 W 33 46 18 25 1023.5 1023.5 0.0
20/04:30pm 13.1 6.7 5.3 59 3.6 W 28 44 15 24 1023.6 1023.6 0.0
20/04:00pm 13.4 7.9 5.8 60 3.6 WSW 24 32 13 17 1023.4 1023.4 0.0
20/03:30pm 14.0 8.1 5.6 57 4.0 WSW 26 39 14 21 1023.2 1023.2 0.0
20/03:00pm 13.9 7.0 6.3 60 3.6 W 32 41 17 22 1023.0 1023.0 0.0
20/02:30pm 14.0 6.7 5.6 57 4.0 W 33 43 18 23 1023.0 1023.0 0.0
20/02:00pm 15.3 8.2 6.3 55 4.3 WSW 33 46 18 25 1022.8 1022.8 0.0
20/01:30pm 13.9 7.7 6.0 59 3.8 WSW 28 41 15 22 1022.6 1022.6 0.0
20/01:00pm 15.3 8.7 7.6 60 3.8 W 32 43 17 23 1022.8 1022.8 0.0
20/12:30pm 15.9 11.1 5.8 51 4.9 W 20 33 11 18 1022.8 1022.8 0.0
20/12:00pm 15.1 9.2 5.9 54 4.4 WSW 26 32 14 17 1023.1 1023.1 0.0
20/11:30am 13.8 9.1 6.2 60 3.6 WSW 20 32 11 17 1023.2 1023.2 0.0
20/11:00am 15.4 10.0 6.2 54 4.4 W 24 39 13 21 1023.0 1023.0 0.0
20/10:30am 14.5 8.8 6.6 59 3.8 W 26 37 14 20 1022.8 1022.8 0.0
20/10:00am 14.1 9.5 6.7 61 3.6 WSW 20 37 11 20 1022.8 1022.8 0.0
20/09:30am 13.1 7.3 6.2 63 3.3 WSW 26 37 14 20 1022.9 1022.9 0.0
20/09:00am 12.6 7.9 6.2 65 3.0 WSW 20 28 11 15 1023.0 1023.0 0.8
20/08:30am 12.4 8.6 5.6 63 3.2 SW 15 22 8 12 1022.9 1022.9 0.8
20/08:00am 12.3 8.5 5.7 64 3.1 SW 15 22 8 12 1022.8 1022.8 0.8
20/07:30am 11.9 6.8 6.0 67 2.8 WSW 22 46 12 25 1022.4 1022.4 0.8
20/07:00am 11.3 6.5 5.6 68 2.6 WSW 20 33 11 18 1022.3 1022.3 0.8
20/06:30am 10.6 6.4 5.6 71 2.3 SW 17 28 9 15 1022.0 1022.0 0.8
20/06:00am 10.8 5.8 6.4 74 2.1 WSW 22 28 12 15 1021.6 1021.6 0.8
20/05:30am 10.8 6.8 6.6 75 2.0 WSW 17 19 9 10 1021.5 1021.5 0.8
20/05:00am 11.0 7.0 6.6 74 2.1 WSW 17 20 9 11 1021.1 1021.1 0.8
20/04:30am 11.0 7.1 6.9 76 1.9 WSW 17 22 9 12 1020.8 1020.8 0.8
20/04:00am 11.1 6.8 7.0 76 1.9 WSW 19 22 10 12 1020.4 1020.4 0.8
20/03:30am 10.8 6.2 6.7 76 1.9 WSW 20 24 11 13 1020.1 1020.1 0.8
20/03:00am 10.9 6.3 6.6 75 2.0 SW 20 26 11 14 1019.7 1019.7 0.8
20/02:30am 10.8 6.8 6.6 75 2.0 SW 17 24 9 13 1019.3 1019.3 0.8
20/02:00am 11.0 7.7 6.6 74 2.1 SW 13 19 7 10 1019.6 1019.6 0.8
20/01:30am 10.5 8.1 6.8 78 1.7 S 9 13 5 7 1019.7 1019.7 0.8
20/01:00am 10.3 8.2 6.6 78 1.7 S 7 11 4 6 1019.7 1019.7 0.8
20/12:30am 10.4 8.5 6.9 79 1.7 S 6 11 3 6 1019.5 1019.5 0.8
20/12:00am 10.5 7.8 7.2 80 1.6 S 11 15 6 8 1019.5 1019.5 0.8
 
Date/Time
EST
Tmp

°C
App
Tmp
°C
Dew
Point
°C
Rel
Hum
%
Delta-T

°C
Wind Press
QNH
hPa
Press
MSL
hPa
Rain
since
9 am
mm
Dir
 
Spd
km/h
Gust
km/h
Spd
kts
Gust
kts
19/11:30pm 9.6 7.8 7.0 84 1.2 SSW 6 7 3 4 1019.4 1019.4 0.8
19/11:00pm 10.2 8.2 7.3 82 1.4 SW 7 11 4 6 1019.3 1019.3 0.8
19/10:30pm 10.6 8.6 7.3 80 1.6 SW 7 11 4 6 1019.2 1019.2 0.4
19/10:00pm 10.2 8.3 7.6 84 1.2 SW 7 13 4 7 1019.2 1019.2 0.4
19/09:30pm 10.6 6.8 7.7 82 1.4 SW 17 24 9 13 1019.0 1019.0 0.4
19/09:00pm 10.7 6.9 7.4 80 1.6 WSW 17 20 9 11 1018.7 1018.7 0.2
19/08:30pm 10.9 6.1 7.4 79 1.7 WSW 22 33 12 18 1018.3 1018.3 0.2

Latest Capital City Observations: Canberra | Sydney | Melbourne | Brisbane | Adelaide | Perth | Hobart | Darwin

Other Formats:

Comma delimited format used in spreadsheet applications
http://www.bom.gov.au/fwo/IDT60901/IDT60901.94988.axf

JavaScript Object Notation format (JSON) in row-major order
http://www.bom.gov.au/fwo/IDT60901/IDT60901.94988.json